Погода в Тобермори

Канада     45°15′22″N   81°40′01″W
темп.,
°C
ветер,
м/с
пор.,
м/с
влажн.,
%
обл.,
%
осадки,
мм/ч
давл.,
гПа
погр.,
м
28 февраля, вс
вс2801:00+1ююз349529 0.0 102230
04:00+1ю459578 0.0 102141
07:000юв789389 0.0 1020142
10:00+1вюв7986100 0.0 1017158
13:00+2юв7118583 0.0 1011152
16:00+2ююв11179593 0.5 1005308
19:00+3ююз12199996 0.9 1000230
22:00+4зюз132097100 0.3 1000261
1 марта, пн
пн101:00+1зсз15208277 0.4 1004802
04:00−2сз15177723 0.0 1008911
07:00−5сз12147318 0.0 1012950
10:00−5сз141676100 0.1 10151520
13:00−8сз141764100 0.3 10171845
16:00−9сз16196797 0.0 10201870
19:00−10сз13156953 0.0 10241407
22:00−10сз1315763 0.0 10261237
2 марта, вт
вт201:00−9сз11137749 0.0 10261171
04:00−7сз8976100 0.1 1026936
07:00−7зсз6883100 0.5 1025786
10:00−5зюз896894 0.1 1024922
13:00−3юз11127297 0.1 1019889
16:00−1ююз141866100 0.0 1013939
19:00+2юз152065100 0.0 1009660
22:00+2зюз121775100 0.0 1007448
3 марта, ср
ср301:00+2з10148599 0.0 1007290
04:000зсз7109597 0.0 1008244
07:00+1зсз7109598 0.1 1010199
10:000сз7109299 0.1 1011278
13:00−2св448395 0.1 1013226
16:00−1зсз9107792 0.0 1014571
19:00−1сз8107981 0.0 1017970
22:00−4с101175100 0.1 1019787
4 марта, чт
чт401:00−7с10108072 0.1 1021751
04:00−9с10108195 0.0 1023742
07:00−11с10108698 0.0 1026653
10:00−12с9983100 0.0 1027644
13:00−11ссз676976 0.0 1027742
16:00−8сз996656 0.0 10251076
19:00−8ссз10127178 0.0 10241266
22:00−9ссз121372100 0.1 10241224